ETH74 LFPG-KFLL

Flight info

Callsign ETH74
Flight time N/A
Altitude 38000
Route LGL DCT GALBO DCT EKRAS DCT UPALO/N0494F370 DCT FEJAC DCT REGHI/M085F380 DCT ETIKI DCT 47N015W 46N020W 44N030W 43N040W 43N050W/M085F400 DCT JEBBY DCT CARAC DCT DOVEY/N0498F400 DCT STOOG/M085F400 DCT ZIBUT/N0489F400 DCT JOELO DCT HARON DCT HIBAC TARPN3
Aircraft B788/H-SDE1E2E3FGHIJ2J3J4J5M1RWXY/LB1D1

Departure

Time 2026-05-03 21:47
Airport Charles de Gaulle International Airport (LFPG)

Arrival

Time N/A
Airport Fort Lauderdale Hollywood International Airport (KFLL)
Time Latitude Longitude Altitude Speed Heading
2026-05-03 21:14 49.00667 2.58344 360 ft 0 kts 85°
2026-05-03 21:29 49.00666 2.58320 366 ft 4 kts 85°
2026-05-03 21:29 49.00664 2.58283 362 ft 3 kts 85°
2026-05-03 21:29 49.00658 2.58249 363 ft 4 kts 34°
2026-05-03 21:29 49.00635 2.58243 367 ft 4 kts 353°
2026-05-03 21:30 49.00624 2.58245 360 ft 4 kts 355°
2026-05-03 21:33 49.00626 2.58245 360 ft 2 kts 355°
2026-05-03 21:33 49.00653 2.58241 367 ft 6 kts 355°
2026-05-03 21:33 49.00709 2.58234 364 ft 10 kts 355°
2026-05-03 21:33 49.00782 2.58234 364 ft 8 kts
2026-05-03 21:34 49.00810 2.58239 360 ft 3 kts
2026-05-03 21:34 49.00837 2.58245 364 ft 5 kts
2026-05-03 21:34 49.00881 2.58247 366 ft 8 kts 354°
2026-05-03 21:34 49.00946 2.58236 360 ft 11 kts 354°
2026-05-03 21:35 49.01029 2.58223 360 ft 13 kts 354°
2026-05-03 21:35 49.01127 2.58209 365 ft 15 kts 354°
2026-05-03 21:35 49.01233 2.58195 360 ft 15 kts 356°
2026-05-03 21:35 49.01335 2.58184 363 ft 12 kts 355°
2026-05-03 21:36 49.01416 2.58174 360 ft 12 kts 355°
2026-05-03 21:36 49.01485 2.58131 361 ft 10 kts 306°
2026-05-03 21:36 49.01474 2.58054 362 ft 6 kts 220°
2026-05-03 21:36 49.01435 2.58041 360 ft 7 kts 185°
2026-05-03 21:37 49.01380 2.58044 360 ft 9 kts 175°
2026-05-03 21:37 49.01306 2.58052 360 ft 12 kts 175°
2026-05-03 21:37 49.01213 2.58064 360 ft 15 kts 175°
2026-05-03 21:37 49.01103 2.58078 361 ft 17 kts 175°
2026-05-03 21:38 49.00990 2.58091 365 ft 14 kts 175°
2026-05-03 21:38 49.00922 2.58161 365 ft 12 kts 114°
2026-05-03 21:38 49.00918 2.58279 362 ft 11 kts 87°
2026-05-03 21:38 49.00923 2.58399 364 ft 11 kts 86°
2026-05-03 21:39 49.00929 2.58521 362 ft 12 kts 85°
2026-05-03 21:39 49.00936 2.58644 362 ft 12 kts 84°
2026-05-03 21:39 49.00943 2.58770 360 ft 12 kts 85°
2026-05-03 21:39 49.00952 2.58898 363 ft 12 kts 81°
2026-05-03 21:40 49.00972 2.59026 363 ft 13 kts 75°
2026-05-03 21:40 49.00987 2.59157 360 ft 13 kts 85°
2026-05-03 21:40 49.00994 2.59290 366 ft 12 kts 86°
2026-05-03 21:40 49.01000 2.59415 365 ft 12 kts 86°
2026-05-03 21:41 49.00969 2.59516 360 ft 10 kts 147°
2026-05-03 21:41 49.00902 2.59541 360 ft 10 kts 171°
2026-05-03 21:41 49.00835 2.59550 360 ft 10 kts 175°
2026-05-03 21:41 49.00768 2.59557 360 ft 10 kts 176°
2026-05-03 21:42 49.00699 2.59564 360 ft 10 kts 176°
2026-05-03 21:42 49.00626 2.59571 360 ft 11 kts 176°
2026-05-03 21:42 49.00549 2.59579 360 ft 11 kts 176°
2026-05-03 21:42 49.00468 2.59589 362 ft 12 kts 174°
2026-05-03 21:43 49.00385 2.59601 366 ft 12 kts 174°
2026-05-03 21:43 49.00298 2.59612 365 ft 13 kts 175°
2026-05-03 21:43 49.00212 2.59625 360 ft 12 kts 175°
2026-05-03 21:43 49.00130 2.59637 360 ft 12 kts 165°
2026-05-03 21:44 49.00089 2.59727 360 ft 10 kts 96°
2026-05-03 21:44 49.00091 2.59823 365 ft 6 kts 86°
2026-05-03 21:44 49.00093 2.59881 362 ft 0 kts 86°
2026-05-03 21:45 49.00094 2.59886 365 ft 2 kts 86°
2026-05-03 21:45 49.00096 2.59929 360 ft 6 kts 85°
2026-05-03 21:45 49.00100 2.60010 362 ft 10 kts 85°
2026-05-03 21:45 49.00107 2.60132 360 ft 14 kts 88°
2026-05-03 21:46 49.00049 2.60232 360 ft 11 kts 166°
2026-05-03 21:46 48.99958 2.60239 360 ft 15 kts 184°
2026-05-03 21:46 48.99858 2.60174 360 ft 17 kts 217°
2026-05-03 21:46 48.99823 2.60001 360 ft 24 kts 265°
2026-05-03 21:47 48.99792 2.59427 360 ft 88 kts 265°
2026-05-03 21:47 48.99724 2.58161 366 ft 150 kts 265°
2026-05-03 21:47 48.99620 2.56329 568 ft 185 kts 262°
2026-05-03 21:47 48.99451 2.54485 1667 ft 177 kts 257°
2026-05-03 21:48 48.99254 2.52513 2225 ft 199 kts 261°
2026-05-03 21:48 48.99101 2.50376 2918 ft 210 kts 261°
2026-05-03 21:48 48.98958 2.48103 3659 ft 217 kts 263°
2026-05-03 21:48 48.98876 2.45764 4181 ft 236 kts 266°
2026-05-03 21:49 48.98863 2.43168 4870 ft 244 kts 267°
2026-05-03 21:49 48.98799 2.40587 5724 ft 244 kts 263°
2026-05-03 21:49 48.98638 2.37922 6330 ft 264 kts 262°
2026-05-03 21:49 48.98461 2.35144 7408 ft 264 kts 262°
2026-05-03 21:50 48.98305 2.32327 8378 ft 269 kts 263°
2026-05-03 21:50 48.98152 2.29476 9360 ft 273 kts 263°
2026-05-03 21:50 48.97992 2.26610 10258 ft 279 kts 262°
2026-05-03 21:50 48.97815 2.23538 10585 ft 305 kts 263°
2026-05-03 21:51 48.97626 2.20229 10781 ft 333 kts 263°
2026-05-03 21:51 48.97421 2.16576 10986 ft 358 kts 263°
2026-05-03 21:51 48.97206 2.12802 11918 ft 358 kts 263°
2026-05-03 21:51 48.96989 2.09011 12665 ft 362 kts 263°
2026-05-03 21:52 48.96767 2.05176 13459 ft 366 kts 263°
2026-05-03 21:52 48.96539 2.01302 14233 ft 369 kts 263°
2026-05-03 21:52 48.96311 1.97399 14962 ft 372 kts 263°
2026-05-03 21:52 48.96081 1.93467 15693 ft 374 kts 262°
2026-05-03 21:53 48.95847 1.89510 16391 ft 377 kts 262°
2026-05-03 21:53 48.95607 1.85513 17046 ft 380 kts 262°
2026-05-03 21:53 48.95366 1.81501 17687 ft 383 kts 262°
2026-05-03 21:53 48.95121 1.77448 18304 ft 385 kts 262°
2026-05-03 21:54 48.94873 1.73376 18920 ft 388 kts 262°
2026-05-03 21:54 48.94621 1.69262 19441 ft 392 kts 262°
2026-05-03 21:54 48.94366 1.65125 19985 ft 395 kts 261°
2026-05-03 21:54 48.94109 1.60947 20509 ft 398 kts 261°
2026-05-03 21:55 48.93776 1.55595 21123 ft 402 kts 261°